Wind_Speed
50 48 46 46 46 43 41 39 36 35 35 35 35 36 34 31 30 29 30 31 30 28 27 28 28 26 25 22 21 21 20 20 21 22 25 28 28 28 29 28 26 24
50 48 46 46 45 42 40 38 36 35 36 36 35 35 33 31 30 30 30 30 29 27 27 28 28 26 25 24 23 23 23 21 19 19 21 25 27 29 31 31 30 28
49 47 46 46 44 41 39 37 36 35 36 36 35 34 32 30 30 29 30 29 28 27 27 27 27 27 26 25 24 24 23 21 20 19 21 25 29 31 33 35 34 31
48 47 46 45 43 41 39 38 36 36 36 35 34 33 31 29 29 29 29 28 27 26 26 26 27 26 26 26 25 24 24 24 24 23 25 29 32 33 34 37 37 32
46 46 45 44 42 40 39 38 37 36 35 34 33 33 31 28 28 28 28 27 26 25 25 25 26 26 26 26 25 25 26 27 27 28 30 32 34 34 35 37 38 36
44 43 42 42 41 39 38 37 37 36 35 33 32 32 30 28 27 27 27 26 25 24 24 25 26 25 25 25 25 24 25 27 29 31 33 33 34 35 37 39 40 41
41 40 40 40 40 39 37 37 37 36 34 32 32 31 29 27 26 27 27 26 24 23 24 25 25 25 25 24 24 23 24 27 30 33 35 36 37 38 39 40 41 42
39 38 38 39 40 38 37 37 37 36 33 32 32 31 28 26 26 27 26 25 23 23 23 24 25 25 24 24 24 23 24 26 28 31 33 35 37 39 40 41 42 42
37 36 37 39 40 38 36 37 37 34 32 31 32 30 27 25 25 26 25 24 23 23 23 24 25 25 24 24 24 24 25 26 27 28 30 31 33 34 35 37 38 39
37 36 36 39 39 37 36 37 35 32 31 31 32 29 26 25 26 26 24 23 22 23 24 24 24 24 24 24 24 24 24 25 26 27 28 28 29 29 30 30 31 32
38 37 37 39 38 36 36 35 33 30 29 31 31 27 25 26 26 25 23 22 23 23 24 24 24 23 23 24 24 24 24 25 25 25 26 26 26 26 26 26 27 28
39 39 39 38 36 35 34 33 30 28 29 30 29 26 25 26 25 23 23 23 23 23 24 23 23 22 23 24 24 24 24 24 24 24 23 23 23 22 23 23 23 24
41 40 38 35 34 33 32 30 27 27 29 29 27 26 26 26 24 23 23 23 23 23 23 23 22 22 22 23 24 24 24 24 23 22 22 21 21 20 20 20 20 21
41 38 35 33 33 32 30 28 27 28 28 27 26 26 26 24 22 22 23 23 23 23 23 22 21 21 22 23 23 24 24 23 23 22 21 20 19 19 18 18 18 19
38 34 33 32 32 30 28 27 27 27 27 26 27 27 25 23 22 22 23 22 23 23 22 21 20 21 22 23 23 23 23 23 21 19 19 19 18 18 17 17 18 18
35 33 32 31 30 29 28 27 27 27 27 27 27 26 24 22 22 23 23 23 23 23 22 21 21 21 22 23 23 23 22 20 18 17 16 16 16 16 16 17 18 19
33 32 31 30 29 29 28 27 27 27 27 27 26 25 23 22 22 23 23 23 23 23 22 21 21 21 22 22 23 22 20 17 16 16 15 15 16 16 17 18 19 20
32 32 31 30 29 29 28 28 28 28 28 27 26 24 23 22 23 23 23 24 24 24 22 21 21 21 21 22 22 20 17 16 16 15 15 15 16 17 18 20 21 21
33 33 31 30 29 29 29 29 29 28 27 27 25 24 22 22 23 24 24 24 25 24 22 21 20 21 21 20 20 18 17 17 16 16 16 17 18 20 22 23 23 23
34 33 31 30 30 30 30 29 29 28 27 26 25 23 22 22 23 24 25 25 25 24 22 20 20 20 20 20 19 18 19 20 19 19 20 20 22 23 25 26 27 27
34 32 31 31 31 30 30 29 28 27 26 25 24 23 22 22 24 25 24 25 25 24 22 21 21 21 20 20 20 20 21 22 22 23 24 25 26 27 29 30 31 31
33 32 32 31 31 30 29 29 27 26 25 24 23 22 22 22 23 24 24 24 24 24 23 22 22 22 22 21 22 23 24 25 26 27 28 30 30 31 32 33 33 33
33 32 32 31 30 29 28 27 26 25 24 23 22 22 22 22 23 23 23 23 24 24 24 23 23 23 23 23 23 24 25 27 28 30 31 32 33 34 34 35 35 34
33 32 31 30 29 28 27 26 25 24 24 23 22 22 21 21 22 23 23 24 24 25 25 25 25 25 24 24 24 25 25 27 28 30 32 33 34 35 35 35 35 35
33 32 30 29 28 27 26 25 25 25 24 23 22 21 21 21 23 24 26 27 27 26 26 27 27 26 25 26 27 27 26 26 28 30 32 33 34 34 35 36 36 36
32 31 29 28 27 26 26 25 25 25 24 22 21 21 22 22 24 26 28 29 28 26 26 27 27 26 26 28 29 28 27 28 29 31 31 33 34 35 36 37 37 38
Wind_Direction
254 255 256 256 258 259 261 262 264 266 268 269 271 274 278 283 288 291 294 295 295 294 293 292 291 291 292 291 288 286 282 275 270 268 274 281 285 286 285 284 285 285
254 255 256 257 258 258 259 261 263 264 266 267 270 274 278 283 287 291 293 293 291 290 290 290 290 290 290 287 284 282 279 274 268 263 266 272 274 276 277 278 281 284
253 254 255 256 258 258 259 260 261 262 264 266 270 274 278 282 286 289 291 289 286 287 288 288 288 290 289 286 283 278 271 264 260 259 259 260 262 265 269 274 278 281
253 254 254 255 257 258 257 258 259 260 262 266 270 273 277 281 286 288 287 284 283 284 286 286 287 288 287 286 282 276 267 259 257 258 258 259 262 266 269 273 277 278
252 253 253 254 256 256 256 256 257 259 262 265 269 273 276 280 284 285 282 279 280 282 284 284 285 286 286 285 284 280 273 265 260 259 260 262 264 267 268 272 275 276
251 252 252 254 255 255 255 255 255 257 261 264 268 272 276 279 282 281 277 276 278 280 282 283 284 285 285 285 284 283 279 272 267 266 268 269 270 270 270 270 272 274
249 251 252 253 255 255 255 254 254 256 259 264 268 271 274 277 279 275 273 273 276 278 280 281 283 284 284 284 284 283 280 276 272 272 274 276 276 276 275 273 272 272
249 251 252 254 255 256 255 254 254 255 258 263 267 270 272 274 273 270 270 271 274 277 278 279 281 282 283 284 286 286 285 281 277 275 275 276 276 276 275 274 272 271
249 250 252 253 254 255 254 253 253 254 256 261 265 267 269 270 267 266 267 270 273 275 277 278 280 281 284 286 288 289 289 287 284 281 279 277 276 275 275 274 274 274
248 249 250 251 252 253 252 252 251 252 255 260 263 265 265 264 262 262 264 268 271 274 275 277 279 281 285 287 289 291 290 288 286 284 283 282 281 281 281 280 280 279
247 247 248 248 249 249 249 248 248 249 253 258 260 261 260 258 257 259 262 266 270 272 273 275 278 282 286 288 290 290 289 288 287 286 286 286 287 287 288 288 287 286
246 246 246 248 248 246 244 243 243 245 250 254 255 255 253 252 254 257 261 266 269 270 272 274 278 282 286 288 290 290 290 289 289 290 290 290 291 291 292 293 293 294
244 245 247 247 245 241 239 237 238 242 246 248 248 248 247 248 251 256 261 265 268 269 271 274 278 283 286 289 291 293 293 294 293 293 294 294 295 296 296 298 298 299
244 246 246 243 239 235 233 232 234 238 241 242 242 242 243 245 250 256 261 265 266 268 271 275 280 283 287 290 293 295 296 297 298 298 300 301 303 304 304 305 305 306
245 244 241 237 234 231 229 230 233 234 235 236 236 237 240 244 250 257 261 263 265 268 271 275 280 284 288 292 295 297 298 299 301 303 307 309 311 312 313 313 313 313
243 239 235 233 230 228 228 230 230 230 230 231 233 235 239 245 251 257 261 262 264 268 271 275 279 284 289 293 296 298 298 299 303 308 313 315 316 317 318 318 316 315
239 234 231 229 227 227 227 227 226 226 227 229 231 235 240 247 253 258 260 262 265 267 270 274 279 284 288 293 296 297 296 298 304 310 314 316 317 318 318 317 316 315
232 229 227 226 225 225 224 222 223 223 225 227 231 236 242 249 255 259 261 262 265 268 271 275 279 283 288 292 295 293 291 295 302 308 311 314 315 317 317 317 317 317
226 225 224 223 223 221 220 220 221 223 225 228 231 238 245 252 256 259 261 263 265 268 271 276 280 283 287 290 291 287 286 291 297 302 306 309 312 314 316 317 318 319
224 223 221 219 218 217 217 219 221 223 225 229 234 242 249 252 255 259 262 264 266 268 270 275 281 284 285 286 285 283 284 288 293 297 303 307 310 313 315 317 318 319
222 219 216 214 214 215 217 219 221 224 226 231 238 244 249 252 256 260 264 266 267 268 270 276 282 283 283 283 282 282 283 287 291 296 302 306 309 312 315 317 318 318
218 215 212 212 213 215 217 220 222 225 228 233 239 244 248 253 257 261 266 270 270 269 270 277 283 283 282 282 281 281 283 286 290 296 301 305 308 310 312 315 316 316
213 211 211 212 214 216 218 221 223 226 229 233 237 243 249 254 258 264 271 275 274 271 271 277 281 281 281 284 285 285 287 288 291 295 300 304 307 308 310 313 314 314
210 210 211 213 215 217 219 221 224 226 228 232 238 245 250 255 262 269 276 279 278 275 273 276 278 278 280 284 288 290 292 293 295 298 300 303 304 306 308 311 312 313
210 211 212 214 215 217 219 221 223 226 228 234 241 247 252 259 266 272 276 279 280 277 275 275 276 276 279 285 289 291 293 294 297 300 301 302 303 305 307 308 310 312
210 212 213 214 215 217 218 220 222 226 231 237 244 250 257 263 268 273 277 279 280 279 277 275 275 277 282 287 290 291 290 291 295 298 301 303 305 306 307 308 310 312
Height
10720 10723 10726 10728 10729 10732 10734 10736 10738 10739 10739 10739 10739 10739 10739 10739 10739 10739 10738 10737 10736 10735 10734 10732 10731 10731 10731 10731 10731 10732 10734 10734 10732 10726 10721 10719 10719 10719 10718 10717 10717 10717
10716 10718 10721 10723 10725 10728 10730 10732 10734 10735 10735 10735 10736 10736 10735 10736 10736 10736 10735 10734 10733 10732 10730 10729 10728 10728 10728 10727 10727 10727 10727 10727 10726 10725 10722 10718 10717 10717 10716 10714 10714 10713
10712 10714 10717 10718 10720 10723 10726 10728 10730 10731 10731 10732 10732 10732 10732 10732 10732 10732 10732 10731 10730 10728 10727 10726 10725 10725 10724 10724 10724 10723 10722 10722 10721 10720 10719 10717 10715 10715 10713 10711 10710 10710
10708 10710 10712 10714 10716 10719 10721 10723 10725 10726 10727 10728 10728 10728 10728 10729 10729 10729 10729 10728 10726 10725 10724 10723 10722 10722 10721 10720 10720 10719 10718 10717 10717 10716 10716 10714 10713 10712 10711 10708 10707 10707
10704 10706 10708 10710 10712 10715 10717 10719 10720 10722 10724 10724 10724 10724 10724 10725 10726 10726 10725 10724 10723 10722 10721 10720 10719 10719 10718 10717 10716 10715 10714 10714 10713 10713 10712 10711 10710 10710 10708 10706 10704 10704
10700 10702 10704 10706 10708 10710 10713 10715 10716 10718 10719 10720 10720 10720 10721 10722 10722 10722 10722 10721 10720 10719 10718 10717 10716 10716 10715 10714 10713 10712 10711 10710 10709 10709 10708 10707 10707 10706 10705 10704 10702 10701
10695 10698 10700 10702 10704 10706 10709 10711 10712 10714 10715 10716 10716 10716 10717 10719 10719 10719 10718 10718 10717 10716 10715 10714 10713 10713 10712 10711 10710 10709 10708 10707 10706 10705 10704 10704 10703 10702 10701 10700 10699 10697
10691 10694 10696 10698 10699 10702 10704 10706 10708 10710 10712 10712 10712 10713 10714 10715 10715 10715 10714 10714 10713 10713 10712 10711 10711 10710 10708 10708 10707 10706 10705 10704 10703 10702 10701 10700 10699 10698 10697 10696 10695 10693
10688 10690 10692 10693 10695 10697 10700 10702 10704 10706 10708 10708 10708 10709 10710 10712 10712 10712 10711 10710 10710 10709 10709 10708 10708 10707 10705 10705 10704 10703 10702 10701 10700 10698 10697 10696 10694 10693 10692 10691 10690 10689
10683 10685 10687 10689 10690 10693 10695 10697 10699 10702 10704 10704 10704 10705 10707 10708 10708 10708 10708 10707 10707 10706 10706 10705 10704 10704 10703 10702 10701 10701 10700 10698 10697 10695 10693 10692 10690 10689 10688 10687 10686 10685
10679 10681 10682 10684 10686 10688 10691 10693 10695 10698 10699 10700 10700 10702 10703 10704 10704 10704 10704 10704 10703 10703 10703 10702 10701 10700 10700 10699 10698 10698 10697 10696 10694 10692 10690 10689 10687 10686 10684 10683 10682 10681
10675 10676 10678 10680 10682 10684 10686 10689 10692 10694 10695 10696 10697 10698 10700 10701 10701 10701 10700 10700 10700 10700 10699 10699 10698 10698 10697 10696 10696 10695 10694 10693 10691 10689 10688 10686 10684 10683 10681 10680 10679 10677
10670 10672 10674 10676 10678 10680 10683 10685 10688 10689 10691 10692 10693 10695 10696 10697 10698 10697 10697 10697 10697 10696 10696 10696 10695 10695 10694 10693 10693 10692 10691 10690 10689 10687 10685 10683 10682 10680 10679 10677 10676 10674
10666 10669 10671 10673 10674 10677 10679 10681 10683 10685 10687 10688 10690 10692 10693 10694 10694 10694 10693 10693 10693 10693 10693 10692 10692 10692 10691 10691 10690 10689 10688 10687 10686 10684 10682 10681 10679 10678 10676 10675 10674 10672
10663 10665 10667 10669 10671 10673 10675 10677 10680 10681 10683 10685 10687 10689 10690 10691 10691 10690 10690 10690 10690 10690 10690 10690 10689 10689 10688 10688 10687 10686 10685 10684 10683 10681 10680 10678 10677 10675 10674 10673 10671 10670
10660 10662 10663 10665 10668 10670 10672 10674 10676 10678 10681 10682 10684 10686 10686 10687 10687 10687 10687 10688 10687 10687 10687 10687 10686 10686 10685 10685 10684 10683 10682 10681 10680 10678 10677 10676 10674 10673 10672 10671 10669 10668
10656 10658 10660 10662 10664 10667 10669 10671 10673 10676 10678 10680 10681 10682 10683 10684 10684 10684 10685 10685 10685 10685 10685 10684 10684 10683 10683 10682 10681 10681 10680 10678 10677 10676 10674 10673 10672 10671 10669 10668 10667 10665
10653 10654 10656 10659 10661 10664 10666 10669 10671 10673 10675 10677 10678 10679 10680 10681 10681 10681 10682 10682 10682 10682 10682 10682 10681 10681 10680 10679 10678 10678 10677 10676 10675 10673 10672 10670 10669 10668 10667 10665 10664 10662
10649 10651 10654 10656 10659 10661 10664 10666 10668 10670 10672 10674 10675 10676 10677 10678 10678 10678 10679 10679 10679 10679 10679 10679 10678 10678 10677 10676 10676 10675 10674 10674 10672 10671 10670 10668 10667 10665 10664 10663 10661 10660
10646 10648 10651 10654 10656 10659 10661 10663 10665 10667 10670 10671 10672 10673 10674 10675 10675 10675 10676 10676 10676 10676 10676 10676 10675 10675 10674 10673 10673 10672 10671 10671 10670 10668 10667 10665 10664 10663 10661 10660 10658 10656
10643 10646 10648 10651 10653 10656 10658 10660 10662 10665 10667 10668 10669 10670 10671 10671 10672 10672 10673 10673 10673 10673 10673 10673 10672 10672 10671 10670 10669 10669 10668 10667 10666 10665 10664 10662 10661 10659 10658 10656 10654 10653
10641 10643 10646 10648 10651 10653 10655 10657 10660 10662 10664 10665 10666 10667 10668 10668 10669 10669 10670 10670 10670 10670 10670 10670 10669 10668 10668 10667 10666 10665 10664 10664 10663 10661 10660 10659 10657 10656 10654 10652 10650 10648
10639 10641 10643 10646 10648 10651 10653 10655 10657 10659 10661 10662 10663 10664 10665 10666 10666 10666 10667 10667 10667 10667 10666 10666 10666 10665 10664 10664 10663 10662 10661 10660 10659 10658 10656 10655 10653 10652 10650 10649 10647 10645
10636 10639 10641 10644 10646 10648 10650 10652 10654 10656 10658 10659 10660 10661 10662 10663 10663 10663 10663 10664 10664 10663 10663 10662 10662 10661 10661 10660 10659 10658 10657 10657 10656 10654 10653 10651 10649 10647 10646 10644 10642 10641
10634 10637 10639 10642 10644 10646 10648 10650 10652 10653 10655 10656 10657 10658 10659 10659 10660 10660 10660 10660 10660 10660 10659 10658 10658 10657 10657 10656 10656 10655 10654 10653 10652 10650 10649 10647 10645 10643 10641 10640 10638 10636
10632 10635 10637 10639 10641 10643 10645 10647 10649 10650 10652 10653 10654 10655 10656 10656 10656 10656 10656 10655 10656 10656 10655 10654 10654 10653 10653 10653 10652 10651 10650 10649 10648 10646 10644 10642 10641 10639 10637 10635 10633 10631